Regional Weather Roundup
Issued by NWS

Home | Current Version | Previous Version | Text Only | Print | Product List | Glossary Off
Versions: 1 2 3 4 5 6 7 8 9 10 11 12 13 14 15 16 17 18 19 20 21 22 23 24 25 26 27 28 29 30 31 32 33 34 35 36 37 38 39 40 41 42 43 44 45 46 47 48 49 50

000
ASUS43 KBIS 091702
RWRND

NORTH DAKOTA REGIONAL WEATHER ROUNDUP
NATIONAL WEATHER SERVICE BISMARCK ND
1100 AM CST TUE FEB 09 2016

NOTE: "FAIR" INDICATES FEW OR NO CLOUDS BELOW 12,000 FEET WITH NO
SIGNIFICANT WEATHER AND/OR OBSTRUCTIONS TO VISIBILITY.


NDZ001>003-009>011-017-091800-
NORTHWEST NORTH DAKOTA

CITY           SKY/WX    TMP DP  RH WIND       PRES   REMARKS
WILLISTON      CLOUDY    32  23  69 N8        30.23R
MINOT          MOSUNNY   32  13  45 SW12      30.20S
MINOT AFB      MOSUNNY   31  15  51 W2        30.20R
$$

NDZ018>021-031>035-040>046-091800-
SOUTHWEST NORTH DAKOTA

CITY           SKY/WX    TMP DP  RH WIND       PRES   REMARKS
BISMARCK       MOSUNNY   33  10  38 SW9       30.24F
DICKINSON      CLOUDY    34  22  61 NW14      30.16S
GARRISON         N/A     27  12  53 SW7       30.21S WCI  19
HETTINGER ARPT CLOUDY    33  20  58 NW5       30.20S
$$

NDZ004>008-012>016-024-026-027-054-091800-
NORTHEAST NORTH DAKOTA

CITY           SKY/WX    TMP DP  RH WIND       PRES   REMARKS
GRAND FORKS    FLURRIES  12   4  70 N14       30.31S WCI  -3
GRND FRKS AFB  CLOUDY    11   2  70 N12       30.31S WCI  -4
DEVILS LAKE    CLOUDY    16   7  67 NE9       30.26S WCI   4
$$

NDZ022-023-025-028>030-036>039-047>053-091800-
SOUTHEAST NORTH DAKOTA

CITY           SKY/WX    TMP DP  RH WIND       PRES   REMARKS
FARGO          CLOUDY    13   4  67 N15       30.30S WCI  -3
JAMESTOWN      CLOUDY    20   7  57 NE7       30.24S WCI  11
$$




USA.gov is the U.S. government's official web portal to all federal, state and local government web resources and services.